Regional Weather Roundup
Issued by NWS

Home | Current Version | Previous Version | Text Only | Print | Product List | Glossary Off
Versions: 1 2 3 4 5 6 7 8 9 10 11 12 13 14 15 16 17 18 19 20 21 22 23 24 25 26 27 28 29 30 31 32 33 34 35 36 37 38 39 40 41 42 43 44 45 46 47 48 49 50

000
ASUS43 KMPX 242001
RWRMN
WEATHER ROUNDUP FOR MINNESOTA
NATIONAL WEATHER SERVICE TWIN CITIES/CHANHASSEN MN
300 PM CDT MON APR 24 2017


NOTE: "FAIR" INDICATES FEW OR NO CLOUDS BELOW 12,000 FEET WITH NO
SIGNIFICANT WEATHER AND/OR OBSTRUCTIONS TO VISIBILITY. N/A MEANS
CURRENT SKY AND/OR WEATHER CONDITIONS ARE NOT AVAILABLE.

MNZ060>063-068>070-242100-
   Twin Cities Metro

CITY           SKY/WX    TMP DP  RH WIND       PRES   REMARKS
TWIN CITIES    CLOUDY    71  27  19 S22G32    29.63F
ST PAUL        MOSUNNY   69  31  24 S20G33    29.63F
CRYSTAL        CLOUDY    69  29  22 S22G35    29.61F
BLAINE         CLOUDY    72  30  21 S26G35    29.62F
LAKEVILLE      CLOUDY    68  30  24 S14G29    29.63F
EDEN PRAIRIE   CLOUDY    70  29  21 S18G35    29.60F
SOUTH ST PAUL  CLOUDY    70  27  19 S22G31    29.63F
LAKE ELMO      FAIR      70  34  26 SE23G29   29.65F
$$
MNZ001>005-007-008-013>017-022>024-027-028-242100-
   Northwest Minnesota

CITY           SKY/WX    TMP DP  RH WIND       PRES   REMARKS
BEMIDJI        CLOUDY    47  37  69 E13       29.57F
HALLOCK        LGT SNOW  34  32  93 NE10      29.68R VSB 1   WCI  26
ROSEAU         LGT SNOW  34  28  80 E12       29.68S VSB 3/4 WCI  25
WARROAD        LGT SNOW  34  30  86 E18       29.70S VSB 3/4 WCI  23
THIEF RVR FALL LGT RAIN  36  33  89 NE17G23   29.61F
CROOKSTON      CLOUDY    37  37 100 E22G29    29.56F
FOSSTON        LGT RAIN  45  36  70 E8        29.57F
DETROIT LAKES  LGT RAIN  54  45  71 SW12G17   29.54R
MOORHEAD       LGT RAIN  54  45  71 N14       29.51F
PARK RAPIDS    CLOUDY    60  37  42 S24       29.53S
MAHNOMEN       LGT RAIN  47  42  82 E10       29.53F
$$
MNZ006-009>011-018-025>026-242100-
   North Central Minnesota

CITY           SKY/WX    TMP DP  RH WIND       PRES   REMARKS
BAUDETTE       SNOW      33  30  88 E13G23    29.66F VSB 1/2 WCI  24
FLAG ISLAND    LGT SNOW  32  30  93 E13       29.72F VSB 3/4 WCI  22
INTL FALLS     LGT RAIN  37  30  75 E13       29.72F
WASKISH        LGT RAIN  37  34  87 E10       29.64S
BIG FORK       CLOUDY    45  34  65 E13       29.64F
LONGVILLE      CLOUDY    57  39  51 SE7G17    29.57S
GRAND RAPIDS   CLOUDY    50  34  54 E16G24    29.63F
CRANE LAKE     MOSUNNY   43  30  61 E6        29.78R
ORR            CLOUDY    39  30  70 E6        29.70F
COOK           CLOUDY    43  30  61 E10G22    29.71F
WALKER         CLOUDY    50  38  63 E10G16    29.55S
$$
MNZ012-019>021-037-242100-
   Northeast Minnesota

CITY           SKY/WX    TMP DP  RH WIND       PRES   REMARKS
DULUTH         CLOUDY    37  29  72 E17G26    29.72F
ELY            CLOUDY    39  28  65 E14       29.76F
HIBBING        CLOUDY    43  31  62 SE18G25   29.68F
EVELETH        CLOUDY    43  26  51 E12G20    29.72F
DULUTH HARBOR  CLOUDY    37  34  87 NE26G35   29.77F
TWO HARBORS    CLOUDY    39  32  75 E21G29    29.76F
SILVER BAY     CLOUDY    36  34  93 NE17G28   29.79F
GRAND MARAIS     N/A     38  31  76 NE21G36   29.89F
G MARAIS ARPRT CLOUDY    34  25  69 E17G25    29.85F WCI  23
$$
MNZ029>031-032-039>041-046>048-054>057-064-242100-
   West Central Minnesota

CITY           SKY/WX    TMP DP  RH WIND       PRES   REMARKS
FERGUS FALLS   LGT RAIN  55  45  67 S12       29.51S
WHEATON        CLOUDY    63  37  39 S10       29.51S
MORRIS         CLOUDY    66  39  37 S22G29    29.50F
ALEXANDRIA     CLOUDY    67  37  33 S22G32    29.54F
ELBOW LAKE     PTSUNNY   61  40  45 SW17      29.52F
WADENA         CLOUDY    61  39  44 S17G31    29.53F
GLENWOOD       CLOUDY    68  37  32 S30       29.55S
APPLETON       CLOUDY    66  36  32 S15G22    29.52S
BENSON         CLOUDY    70  28  21 SW21G30   29.54S
ORTONVILLE     MOSUNNY   64  41  42 S15       29.50S
MADISON        PTSUNNY   66  39  37 S20G26    29.52S
WILLMAR        FAIR      68  34  28 S12G23    29.57S
$$
MNZ033>034-036-042>043-049>051-058-059-242100-
   Central Minnesota

CITY           SKY/WX    TMP DP  RH WIND       PRES   REMARKS
ST CLOUD       CLOUDY    68  31  25 S22G35    29.57F
SAUK CENTRE    FAIR      66  35  32 S29       29.55S
PAYNESVILLE    CLOUDY    67  30  24 S17G30    29.57F
AITKIN         CLOUDY    63  27  25 SE13G20   29.58F
PINE RIVER     LGT RAIN  57  39  51 S16G26    29.60S
BRAINERD       CLOUDY    61  32  33 S15G26    29.58F
STAPLES        CLOUDY    61  32  33 S12       29.55F
LONG PRAIRIE   FAIR      64  36  34 SE22G28   29.54F
LITTLE FALLS   CLOUDY    64  32  29 S20G25    29.57F
LITCHFIELD     CLOUDY    68  34  28 S9        29.59F
BUFFALO        CLOUDY    69  28  22 S10G24    29.61F
MAPLE LAKE     CLOUDY    70  34  26 S10G21    29.60F
HUTCHINSON     CLOUDY    67  35  31 S14G22    29.60S
$$
MNZ037-044-045-052-053-242100-
   East Central Minnesota

CITY           SKY/WX    TMP DP  RH WIND       PRES   REMARKS
PRINCETON      CLOUDY    70  32  24 S17G32    29.61F
MORA           CLOUDY    64  32  29 S16G24    29.66S
CAMBRIDGE      CLOUDY    70  45  40 S20G28    29.61F
RUSH CITY      CLOUDY    67  32  26 S17G33    29.64F
MOOSE LAKE     CLOUDY    43  32  65 NE8G16    29.67S
HINCKLEY       CLOUDY    66  34  30 S15G21    29.64F
CLOQUET        CLOUDY    37  28  70 E12G23    29.71F
MCGREGOR       CLOUDY    48  34  57 E16       29.64F
$$
MNZ071>073-080-081-089-090-097-098-242100-
   Southwest Minnesota

CITY           SKY/WX    TMP DP  RH WIND       PRES   REMARKS
MONTEVIDEO     CLOUDY    66  37  34 SW15G29   29.54S
GRANITE FALLS  CLOUDY    65  37  34 S25G33    29.58R
CANBY          CLOUDY    63  39  40 S16G22    29.55S
MARSHALL       CLOUDY    62  40  44 SW16G24   29.56F
REDWOOD FALLS  LGT RAIN  60  40  47 S13       29.57F
OLIVIA         CLOUDY    64  32  29 S21G26    29.58S
PIPESTONE      CLOUDY    61  37  41 SW14      29.56F
WINDOM         LGT RAIN  64  28  25 S21       29.57F
WORTHINGTON    CLOUDY    63  35  35 S15G22    29.58R
JACKSON        CLOUDY    64  30  27 S18G31    29.60F
TRACY          CLOUDY    60  45  58 SW12      29.58F
SLAYTON        CLOUDY    57  43  59 W13       29.59S
$$
MNZ065>067-074>077-082>085-091>093-242100-
   South Central Minnesota

CITY           SKY/WX    TMP DP  RH WIND       PRES   REMARKS
MANKATO        CLOUDY    68  28  22 S22G29    29.60F
NEW ULM        CLOUDY    64  30  27 S14G25    29.60R
ST JAMES       CLOUDY    66  30  26 S20       29.60F
FAIRMONT       CLOUDY    69  29  22 S26G36    29.59F
GLENCOE        CLOUDY    68  34  28 S15G25    29.60S
FARIBAULT      CLOUDY    70  28  21 SE21G31   29.64F
OWATONNA       CLOUDY    68  25  19 S20G29    29.65F
WASECA         CLOUDY    66  30  26 S22G30    29.64F
ALBERT LEA     CLOUDY    66  21  18 S18G37    29.65F
$$
MNZ078>079-086>088-094>096-242100-
   Southeast Minnesota

CITY           SKY/WX    TMP DP  RH WIND       PRES   REMARKS
ROCHESTER      CLOUDY    67  28  23 S26G39    29.68F
RED WING       CLOUDY    72  23  16 S20G31    29.66F
STANTON        CLOUDY    70  27  19 S24G30    29.64F
DODGE CENTER   CLOUDY    66  28  24 S25G31    29.68F
WINONA         PTSUNNY   72  32  23 S7G18     29.72F
AUSTIN         CLOUDY    66  27  22 S16G30    29.67F
PRESTON        MOSUNNY   68  31  25 S24G30    29.71F
$$
ABBREVIATIONS USED IN REMARKS
   TC - TEMPERATURES IN CELSIUS
  WCI - WIND CHILL INDEX
   HX - HEAT INDEX
  VSB - VISIBILITY
$$




USA.gov is the U.S. government's official web portal to all federal, state and local government web resources and services.